{"data":{"norad_id":60407,"intl_designator":"2024-141K","name":"STARLINK-11136 [DTC]","alt_names":[],"object_type":"PAYLOAD","status":"ACTIVE","operator":null,"country":"US","launch_date":"2024-08-10","launch_site_code":"AFETR","launch_vehicle":null,"mission":null,"orbit_class":"UNKNOWN","rcs_meters":null,"size_class":null,"mass_kg":null,"dimensions":null,"purposes":["comms"],"wikipedia_slug":null,"has_3d_model":false,"image_url":null,"decayed_at":null,"tle_current":{"epoch":"2026-05-25T04:08:18.403008Z","epoch_age_seconds":63676,"freshness":"FRESH","line1":"1 60407U 24141K   26145.17243522  .00001027  00000+0  13334-4 0  9990","line2":"2 60407  53.1599  69.3543 0001003  89.2989 270.8144 15.69709201103707","mean_motion":15.69709201,"eccentricity":0.0001003,"inclination_deg":53.1599,"raan_deg":69.3543,"arg_perigee_deg":89.2989,"mean_anomaly_deg":270.8144,"bstar":1.3334e-5,"rev_number":10370,"period_min":91.736736911692,"perigee_km":359.05322888941,"apogee_km":360.4048448164,"semimajor_km":6737.8660368529,"source":"CELESTRAK","updated_at":"2026-05-25T13:38:19.269073Z"}}}